C/2021 E3 ( ZTF )

Japanese version
Home page
Updated on January 17, 2022

---------------------------------------------------------------------

* Profile

Discovery Date March 9, 2021
Magnitude 19.6 mag
Discoverer Zwicky Transient Facility

* Pictures

* Orbital Elements

Epoch 2022 Jan. 21.0 TT = JDT 2459600.5
T 2022 June 11.90603 TT                                 Rudenko
q   1.7774372            (2000.0)            P               Q
z  -0.0004786      Peri.  228.84485     -0.11524750     -0.43255660
 +/-0.0000021      Node   104.46808     -0.37426706     +0.85277571
e   1.0008508      Incl.  112.55711     -0.92013161     -0.29269160
From 852 observations 2021 Mar. 9-Dec. 14, mean residual 0".4.

* Finding Charts

* Magnitudes Graph

        m1 = 8.0 + 5 log d + 10.0 log r

---------------------------------------------------------------------

The orbital elements are published on M.P.E.C. 2022-A21.
The charts are made with StellaNavigator Ver.10 (AstroArts).
The magnitudes graphs are made with Comet for Windows.

---------------------------------------------------------------------

Copyright(C) Seiichi Yoshida (comet@aerith.net). All rights reserved.